| time (UTC) | temp C | wind direction | speed KPH | gust KPH | rain 1hr cm | rain 24hr cm | rain mn cm | humidity % | barometer mb |
| 20260510182704 | 20 | 236 | 4.8 | 14.5 | 0.00 | 0.00 | 0.00 | 25 | 1016.1 |
| 20260510182205 | 20 | 185 | 4.8 | 17.7 | 0.00 | 0.00 | 0.00 | 26 | 1016.1 |
| 20260510181703 | 19 | 127 | 4.8 | 17.7 | 0.00 | 0.00 | 0.00 | 26 | 1016.2 |
| 20260510181207 | 19 | 112 | 6.4 | 19.3 | 0.00 | 0.00 | 0.00 | 26 | 1016.2 |
| 20260510180203 | 19 | 272 | 6.4 | 20.9 | 0.00 | 0.00 | 0.00 | 26 | 1016.3 |
| 20260510175702 | 19 | 199 | 6.4 | 20.9 | 0.00 | 0.00 | 0.00 | 26 | 1016.3 |
| 20260510174702 | 18 | 158 | 6.4 | 14.5 | 0.00 | 0.00 | 0.00 | 30 | 1016.4 |
| 20260510174204 | 18 | 123 | 6.4 | 14.5 | 0.00 | 0.00 | 0.00 | 30 | 1016.5 |
| 20260510173205 | 18 | 129 | 6.4 | 14.5 | 0.00 | 0.00 | 0.00 | 33 | 1016.5 |
| 20260510172702 | 18 | 235 | 4.8 | 9.7 | 0.00 | 0.00 | 0.00 | 33 | 1016.6 |
| 20260510172204 | 18 | 137 | 4.8 | 16.1 | 0.00 | 0.00 | 0.00 | 34 | 1016.7 |
| 20260510171703 | 18 | 242 | 3.2 | 16.1 | 0.00 | 0.00 | 0.00 | 36 | 1016.8 |
| 20260510170702 | 17 | 245 | 3.2 | 11.3 | 0.00 | 0.00 | 0.00 | 35 | 1016.9 |
| 20260510170206 | 18 | 202 | 3.2 | 8.0 | 0.00 | 0.00 | 0.00 | 37 | 1016.9 |
| 20260510165703 | 17 | 277 | 3.2 | 8.0 | 0.00 | 0.00 | 0.00 | 37 | 1017.1 |
| 20260510165202 | 18 | 138 | 3.2 | 8.0 | 0.00 | 0.00 | 0.00 | 38 | 1017.1 |
| 20260510164702 | 18 | 329 | 3.2 | 6.4 | 0.00 | 0.00 | 0.00 | 34 | 1016.9 |
| 20260510164204 | 17 | 117 | 3.2 | 6.4 | 0.00 | 0.00 | 0.00 | 35 | 1017.1 |
| 20260510163705 | 17 | 219 | 3.2 | 9.7 | 0.00 | 0.00 | 0.00 | 36 | 1017.1 |
| 20260510163203 | 16 | 108 | 3.2 | 9.7 | 0.00 | 0.00 | 0.00 | 36 | 1017.1 |
| 20260510162702 | 16 | 159 | 3.2 | 14.5 | 0.00 | 0.00 | 0.00 | 38 | 1016.8 |
| 20260510162157 | 16 | 187 | 4.8 | 14.5 | 0.00 | 0.00 | 0.00 | 41 | 1016.9 |
| 20260510161652 | 15 | 250 | 4.8 | 11.3 | 0.00 | 0.00 | 0.00 | 42 | 1016.9 |
| 20260510161148 | 15 | 132 | 3.2 | 6.4 | 0.00 | 0.00 | 0.00 | 45 | 1016.9 |
| 20260510160639 | 15 | 105 | 3.2 | 6.4 | 0.00 | 0.00 | 0.00 | 47 | 1017.1 |
| 20260510160134 | 15 | 96 | 3.2 | 4.8 | 0.00 | 0.00 | 0.00 | 45 | 1017.3 |
| 20260510155631 | 15 | 95 | 3.2 | 4.8 | 0.00 | 0.00 | 0.00 | 46 | 1017.4 |
| 20260510155132 | 15 | 87 | 1.6 | 6.4 | 0.00 | 0.00 | 0.00 | 46 | 1017.5 |
| 20260510154631 | 15 | 92 | 1.6 | 6.4 | 0.00 | 0.00 | 0.00 | 47 | 1017.6 |
| 20260510154132 | 14 | 94 | 3.2 | 4.8 | 0.00 | 0.00 | 0.00 | 49 | 1017.6 |
| 20260510152630 | 13 | 0 | 3.2 | 4.8 | 0.00 | 0.00 | 0.00 | 49 | 1017.6 |
| 20260510152131 | 13 | 0 | 1.6 | 4.8 | 0.00 | 0.00 | 0.00 | 50 | 1017.6 |
| 20260510151634 | 13 | 0 | 3.2 | 4.8 | 0.00 | 0.00 | 0.00 | 50 | 1017.6 |
| 20260510151134 | 13 | 0 | 1.6 | 4.8 | 0.00 | 0.00 | 0.00 | 51 | 1017.6 |
| 20260510150631 | 13 | 0 | 1.6 | 6.4 | 0.00 | 0.00 | 0.00 | 53 | 1017.5 |
| 20260510150131 | 12 | 0 | 1.6 | 6.4 | 0.00 | 0.00 | 0.00 | 53 | 1017.6 |
| 20260510145632 | 12 | 0 | 1.6 | 4.8 | 0.00 | 0.00 | 0.00 | 53 | 1017.5 |
| 20260510145131 | 12 | 0 | 1.6 | 4.8 | 0.00 | 0.00 | 0.00 | 53 | 1017.5 |
| 20260510144632 | 12 | 0 | 1.6 | 4.8 | 0.00 | 0.00 | 0.00 | 54 | 1017.5 |
| 20260510144131 | 11 | 0 | 1.6 | 4.8 | 0.00 | 0.00 | 0.00 | 55 | 1017.5 |
| 20260510143634 | 11 | 0 | 1.6 | 4.8 | 0.00 | 0.00 | 0.00 | 56 | 1017.7 |
| 20260510142633 | 11 | 0 | 1.6 | 6.4 | 0.00 | 0.00 | 0.00 | 57 | 1018.0 |
| 20260510142132 | 10 | 0 | 1.6 | 4.8 | 0.00 | 0.00 | 0.00 | 58 | 1018.0 |
| 20260510141631 | 10 | 0 | 1.6 | 4.8 | 0.00 | 0.00 | 0.00 | 59 | 1017.9 |
| 20260510141130 | 10 | 0 | 0.0 | 4.8 | 0.00 | 0.00 | 0.00 | 63 | 1018.0 |
| 20260510140630 | 10 | 0 | 0.0 | 1.6 | 0.00 | 0.00 | 0.00 | 65 | 1017.9 |
| 20260510140130 | 9 | 146 | 0.0 | 0.0 | 0.00 | 0.00 | 0.00 | 65 | 1017.9 |
| 20260510135635 | 8 | 167 | 0.0 | 3.2 | 0.00 | 0.00 | 0.00 | 66 | 1017.9 |
| 20260510135136 | 8 | 173 | 1.6 | 6.4 | 0.00 | 0.00 | 0.00 | 67 | 1017.8 |
| 20260510134632 | 8 | 171 | 1.6 | 6.4 | 0.00 | 0.00 | 0.00 | 68 | 1017.8 |
| 20260510134130 | 7 | 170 | 0.0 | 0.0 | 0.00 | 0.00 | 0.00 | 71 | 1017.8 |
| 20260510133631 | 6 | 0 | 0.0 | 0.0 | 0.00 | 0.00 | 0.00 | 72 | 1018.0 |
| 20260510133133 | 6 | 167 | 0.0 | 0.0 | 0.00 | 0.00 | 0.00 | 72 | 1017.9 |
| 20260510132631 | 6 | 167 | 0.0 | 0.0 | 0.00 | 0.00 | 0.00 | 72 | 1018.0 |
| 20260510132130 | 6 | 167 | 0.0 | 0.0 | 0.00 | 0.00 | 0.00 | 72 | 1018.0 |
| 20260510131629 | 6 | 167 | 0.0 | 0.0 | 0.00 | 0.00 | 0.00 | 73 | 1017.9 |
| 20260510131125 | 6 | 164 | 0.0 | 0.0 | 0.00 | 0.00 | 0.00 | 73 | 1017.9 |
| 20260510130617 | 6 | 163 | 0.0 | 0.0 | 0.00 | 0.00 | 0.00 | 73 | 1017.8 |
| 20260510130117 | 6 | 163 | 0.0 | 0.0 | 0.00 | 0.00 | 0.00 | 73 | 1017.8 |
| 20260510125618 | 6 | 163 | 0.0 | 0.0 | 0.00 | 0.00 | 0.00 | 73 | 1017.9 |
| 20260510125115 | 6 | 163 | 0.0 | 0.0 | 0.00 | 0.00 | 0.00 | 73 | 1018.0 |
| 20260510124614 | 6 | 163 | 0.0 | 0.0 | 0.00 | 0.00 | 0.00 | 73 | 1017.9 |
| 20260510124114 | 6 | 163 | 0.0 | 0.0 | 0.00 | 0.00 | 0.00 | 73 | 1018.0 |
| 20260510123615 | 6 | 163 | 0.0 | 0.0 | 0.00 | 0.00 | 0.00 | 73 | 1018.0 |
| 20260510122613 | 6 | 164 | 0.0 | 0.0 | 0.00 | 0.00 | 0.00 | 73 | 1018.1 |
| 20260510122111 | 6 | 163 | 0.0 | 0.0 | 0.00 | 0.00 | 0.00 | 72 | 1018.1 |
| 20260510121611 | 6 | 163 | 0.0 | 0.0 | 0.00 | 0.00 | 0.00 | 71 | 1018.0 |
| 20260510121110 | 6 | 163 | 0.0 | 0.0 | 0.00 | 0.00 | 0.00 | 72 | 1017.9 |
| 20260510120609 | 6 | 163 | 0.0 | 1.6 | 0.00 | 0.00 | 0.00 | 71 | 1017.9 |
| 20260510120107 | 6 | 163 | 0.0 | 1.6 | 0.00 | 0.00 | 0.00 | 70 | 1018.0 |
| 20260510115607 | 7 | 164 | 0.0 | 1.6 | 0.00 | 0.00 | 0.00 | 70 | 1017.9 |
| 20260510115107 | 7 | 164 | 0.0 | 1.6 | 0.00 | 0.00 | 0.00 | 72 | 1018.0 |
| 20260510114607 | 7 | 163 | 0.0 | 1.6 | 0.00 | 0.00 | 0.00 | 72 | 1018.0 |
| 20260510114107 | 7 | 164 | 0.0 | 0.0 | 0.00 | 0.00 | 0.00 | 71 | 1018.0 |
| 20260510113608 | 7 | 164 | 0.0 | 0.0 | 0.00 | 0.00 | 0.00 | 71 | 1018.0 |
| 20260510113107 | 7 | 164 | 0.0 | 6.4 | 0.00 | 0.00 | 0.00 | 70 | 1018.1 |
| 20260510112607 | 7 | 164 | 1.6 | 6.4 | 0.00 | 0.00 | 0.00 | 70 | 1018.1 |
| 20260510112105 | 7 | 164 | 0.0 | 6.4 | 0.00 | 0.00 | 0.00 | 71 | 1018.1 |
| 20260510111605 | 7 | 59 | 0.0 | 0.0 | 0.00 | 0.00 | 0.00 | 71 | 1018.1 |
| 20260510111106 | 7 | 59 | 0.0 | 0.0 | 0.00 | 0.00 | 0.00 | 70 | 1018.1 |
| 20260510110605 | 7 | 59 | 0.0 | 0.0 | 0.00 | 0.00 | 0.00 | 70 | 1018.4 |
| 20260510110107 | 7 | 59 | 0.0 | 0.0 | 0.00 | 0.00 | 0.00 | 71 | 1018.3 |
| 20260510105607 | 7 | 59 | 0.0 | 0.0 | 0.00 | 0.00 | 0.00 | 71 | 1018.3 |
| 20260510105106 | 7 | 59 | 0.0 | 0.0 | 0.00 | 0.00 | 0.00 | 71 | 1018.1 |
| 20260510104605 | 8 | 59 | 0.0 | 0.0 | 0.00 | 0.00 | 0.00 | 71 | 1018.1 |
| 20260510104105 | 8 | 59 | 0.0 | 0.0 | 0.00 | 0.00 | 0.00 | 71 | 1018.1 |
| 20260510103605 | 7 | 59 | 0.0 | 0.0 | 0.00 | 0.00 | 0.00 | 70 | 1018.3 |
| 20260510103106 | 7 | 59 | 0.0 | 0.0 | 0.00 | 0.00 | 0.00 | 69 | 1018.3 |
| 20260510102606 | 7 | 59 | 0.0 | 0.0 | 0.00 | 0.00 | 0.00 | 69 | 1018.3 |
| 20260510102106 | 8 | 59 | 0.0 | 0.0 | 0.00 | 0.00 | 0.00 | 68 | 1018.3 |
| 20260510101605 | 8 | 59 | 0.0 | 0.0 | 0.00 | 0.00 | 0.00 | 67 | 1018.4 |
| 20260510100603 | 8 | 59 | 0.0 | 0.0 | 0.00 | 0.00 | 0.00 | 65 | 1018.4 |
| 20260510095602 | 8 | 59 | 0.0 | 0.0 | 0.00 | 0.00 | 0.00 | 63 | 1018.4 |
| 20260510095104 | 8 | 59 | 0.0 | 0.0 | 0.00 | 0.00 | 0.00 | 63 | 1018.3 |
| 20260510094603 | 8 | 59 | 0.0 | 0.0 | 0.00 | 0.00 | 0.00 | 64 | 1018.1 |
| 20260510093605 | 8 | 59 | 0.0 | 0.0 | 0.00 | 0.00 | 0.00 | 63 | 1018.3 |
| 20260510093107 | 8 | 59 | 0.0 | 0.0 | 0.00 | 0.00 | 0.00 | 63 | 1018.1 |
| 20260510092606 | 8 | 59 | 0.0 | 0.0 | 0.00 | 0.00 | 0.00 | 63 | 1018.3 |
| 20260510092108 | 8 | 59 | 0.0 | 0.0 | 0.00 | 0.00 | 0.00 | 66 | 1018.1 |
| 20260510091602 | 8 | 59 | 0.0 | 0.0 | 0.00 | 0.00 | 0.00 | 66 | 1018.1 |
| 20260510091103 | 8 | 59 | 0.0 | 0.0 | 0.00 | 0.00 | 0.00 | 66 | 1018.1 |
| 20260510090603 | 8 | 59 | 0.0 | 0.0 | 0.00 | 0.00 | 0.00 | 65 | 1018.0 |
| 20260510085602 | 8 | 59 | 0.0 | 0.0 | 0.00 | 0.00 | 0.00 | 67 | 1018.1 |
| 20260510085103 | 8 | 59 | 0.0 | 0.0 | 0.00 | 0.00 | 0.00 | 67 | 1018.1 |
| 20260510083602 | 9 | 59 | 0.0 | 0.0 | 0.00 | 0.00 | 0.00 | 65 | 1018.3 |
| 20260510083103 | 9 | 59 | 0.0 | 0.0 | 0.00 | 0.00 | 0.00 | 66 | 1018.1 |
| 20260510082105 | 10 | 59 | 0.0 | 0.0 | 0.00 | 0.00 | 0.00 | 66 | 1018.1 |
| 20260510081602 | 10 | 59 | 0.0 | 0.0 | 0.00 | 0.00 | 0.00 | 66 | 1018.1 |
| 20260510081103 | 10 | 59 | 0.0 | 0.0 | 0.00 | 0.00 | 0.00 | 66 | 1018.1 |
| 20260510080603 | 10 | 59 | 0.0 | 0.0 | 0.00 | 0.00 | 0.00 | 65 | 1018.0 |
| 20260510080105 | 10 | 59 | 0.0 | 0.0 | 0.00 | 0.00 | 0.00 | 63 | 1018.0 |
| 20260510075605 | 10 | 59 | 0.0 | 0.0 | 0.00 | 0.00 | 0.00 | 62 | 1018.1 |
| 20260510075107 | 10 | 59 | 0.0 | 0.0 | 0.00 | 0.00 | 0.00 | 60 | 1018.3 |
| 20260510074605 | 10 | 59 | 0.0 | 0.0 | 0.00 | 0.00 | 0.00 | 61 | 1018.3 |
| 20260510074107 | 10 | 59 | 0.0 | 0.0 | 0.00 | 0.00 | 0.00 | 61 | 1018.1 |
| 20260510073604 | 10 | 59 | 0.0 | 0.0 | 0.00 | 0.00 | 0.00 | 61 | 1018.1 |
| 20260510072603 | 10 | 0 | 0.0 | 0.0 | 0.00 | 0.00 | 0.00 | 61 | 1018.1 |
| 20260510072103 | 10 | 0 | 0.0 | 0.0 | 0.00 | 0.00 | 0.00 | 60 | 1018.1 |
| 20260510071604 | 10 | 0 | 0.0 | 0.0 | 0.00 | 0.00 | 0.00 | 60 | 1018.0 |
| 20260510071101 | 10 | 0 | 0.0 | 0.0 | 0.00 | 0.00 | 0.00 | 60 | 1018.1 |
| 20260510070603 | 10 | 0 | 0.0 | 0.0 | 0.00 | 0.00 | 0.00 | 60 | 1018.0 |
| 20260510065602 | 10 | 0 | 0.0 | 0.0 | 0.00 | 0.00 | 0.00 | 59 | 1018.0 |
| 20260510065100 | 11 | 0 | 0.0 | 0.0 | 0.00 | 0.00 | 0.00 | 59 | 1018.0 |
| 20260510064100 | 11 | 0 | 0.0 | 0.0 | 0.00 | 0.00 | 0.00 | 59 | 1018.0 |
| 20260510063601 | 11 | 0 | 0.0 | 0.0 | 0.00 | 0.00 | 0.00 | 56 | 1018.1 |
| 20260510063100 | 11 | 0 | 0.0 | 0.0 | 0.00 | 0.00 | 0.00 | 57 | 1018.3 |
| 20260510062555 | 11 | 0 | 0.0 | 0.0 | 0.00 | 0.00 | 0.00 | 57 | 1018.1 |
| 20260510062055 | 11 | 0 | 0.0 | 0.0 | 0.00 | 0.00 | 0.00 | 57 | 1018.1 |
| 20260510061554 | 11 | 0 | 0.0 | 0.0 | 0.00 | 0.00 | 0.00 | 56 | 1018.3 |
| 20260510060556 | 11 | 0 | 0.0 | 0.0 | 0.00 | 0.00 | 0.00 | 57 | 1018.0 |
| 20260510055559 | 12 | 0 | 1.6 | 4.8 | 0.00 | 0.00 | 0.00 | 54 | 1018.0 |
| 20260510055054 | 12 | 0 | 1.6 | 3.2 | 0.00 | 0.00 | 0.00 | 55 | 1018.0 |
| 20260510054555 | 12 | 0 | 0.0 | 1.6 | 0.00 | 0.00 | 0.00 | 53 | 1017.9 |
| 20260510054050 | 12 | 0 | 0.0 | 1.6 | 0.00 | 0.00 | 0.00 | 53 | 1018.0 |
| 20260510053552 | 12 | 0 | 0.0 | 3.2 | 0.00 | 0.00 | 0.00 | 54 | 1017.9 |
| 20260510053052 | 12 | 0 | 1.6 | 4.8 | 0.00 | 0.00 | 0.00 | 53 | 1017.9 |
| 20260510051550 | 12 | 0 | 0.0 | 1.6 | 0.00 | 0.00 | 0.00 | 49 | 1017.9 |
| 20260510051050 | 13 | 0 | 0.0 | 1.6 | 0.00 | 0.00 | 0.00 | 47 | 1017.9 |
| 20260510050552 | 13 | 0 | 0.0 | 3.2 | 0.00 | 0.00 | 0.00 | 46 | 1017.9 |
| 20260510050050 | 13 | 329 | 1.6 | 3.2 | 0.00 | 0.00 | 0.00 | 45 | 1017.8 |
| 20260510045551 | 13 | 329 | 1.6 | 6.4 | 0.00 | 0.00 | 0.00 | 48 | 1018.0 |
| 20260510045051 | 14 | 328 | 1.6 | 6.4 | 0.00 | 0.00 | 0.00 | 44 | 1017.8 |
| 20260510044052 | 15 | 229 | 0.0 | 1.6 | 0.00 | 0.00 | 0.00 | 36 | 1017.8 |
| 20260510043551 | 15 | 228 | 0.0 | 1.6 | 0.00 | 0.00 | 0.00 | 39 | 1017.7 |
| 20260510043052 | 15 | 228 | 0.0 | 1.6 | 0.00 | 0.00 | 0.00 | 36 | 1017.7 |
| 20260510042553 | 15 | 229 | 1.6 | 3.2 | 0.00 | 0.00 | 0.00 | 36 | 1017.7 |
| 20260510042054 | 15 | 229 | 1.6 | 4.8 | 0.00 | 0.00 | 0.00 | 34 | 1017.7 |
| 20260510041547 | 15 | 228 | 3.2 | 4.8 | 0.00 | 0.00 | 0.00 | 34 | 1017.6 |
| 20260510041043 | 15 | 227 | 3.2 | 6.4 | 0.00 | 0.00 | 0.00 | 33 | 1017.6 |
| 20260510040542 | 16 | 228 | 3.2 | 6.4 | 0.00 | 0.00 | 0.00 | 34 | 1017.5 |
| 20260510040042 | 16 | 227 | 1.6 | 4.8 | 0.00 | 0.00 | 0.00 | 34 | 1017.5 |
| 20260510035538 | 16 | 226 | 1.6 | 6.4 | 0.00 | 0.00 | 0.00 | 34 | 1017.5 |
| 20260510034538 | 16 | 219 | 1.6 | 6.4 | 0.00 | 0.00 | 0.00 | 34 | 1017.3 |
| 20260510034038 | 16 | 209 | 1.6 | 4.8 | 0.00 | 0.00 | 0.00 | 34 | 1017.3 |
| 20260510033536 | 16 | 209 | 4.8 | 11.3 | 0.00 | 0.00 | 0.00 | 34 | 1017.2 |
| 20260510033037 | 16 | 221 | 4.8 | 11.3 | 0.00 | 0.00 | 0.00 | 34 | 1017.2 |
| 20260510032535 | 16 | 215 | 1.6 | 8.0 | 0.00 | 0.00 | 0.00 | 35 | 1017.1 |
| 20260510031533 | 16 | 225 | 3.2 | 6.4 | 0.00 | 0.00 | 0.00 | 34 | 1017.1 |
| 20260510031035 | 16 | 224 | 3.2 | 8.0 | 0.00 | 0.00 | 0.00 | 35 | 1017.1 |
| 20260510030532 | 16 | 227 | 3.2 | 8.0 | 0.00 | 0.00 | 0.00 | 36 | 1016.9 |
| 20260510030031 | 17 | 209 | 3.2 | 8.0 | 0.00 | 0.00 | 0.00 | 35 | 1016.8 |
| 20260510024531 | 17 | 222 | 1.6 | 4.8 | 0.00 | 0.00 | 0.00 | 34 | 1016.8 |
| 20260510024030 | 17 | 226 | 1.6 | 4.8 | 0.00 | 0.00 | 0.00 | 33 | 1016.9 |
| 20260510023531 | 17 | 226 | 1.6 | 4.8 | 0.00 | 0.00 | 0.00 | 33 | 1016.8 |
| 20260510022528 | 18 | 227 | 1.6 | 3.2 | 0.00 | 0.00 | 0.00 | 33 | 1016.8 |
| 20260510022026 | 18 | 227 | 1.6 | 4.8 | 0.00 | 0.00 | 0.00 | 30 | 1016.9 |
| 20260510021526 | 18 | 227 | 1.6 | 4.8 | 0.00 | 0.00 | 0.00 | 29 | 1016.8 |
| 20260510021027 | 18 | 226 | 1.6 | 4.8 | 0.00 | 0.00 | 0.00 | 29 | 1016.9 |
| 20260510020527 | 18 | 226 | 1.6 | 4.8 | 0.00 | 0.00 | 0.00 | 29 | 1016.8 |
| 20260510020024 | 19 | 198 | 0.0 | 4.8 | 0.00 | 0.00 | 0.00 | 28 | 1016.8 |
| 20260510015524 | 19 | 200 | 0.0 | 1.6 | 0.00 | 0.00 | 0.00 | 29 | 1016.7 |
| 20260510015024 | 19 | 186 | 0.0 | 4.8 | 0.00 | 0.00 | 0.00 | 30 | 1016.8 |
| 20260510014023 | 20 | 185 | 0.0 | 4.8 | 0.00 | 0.00 | 0.00 | 30 | 1016.8 |
| 20260510013522 | 20 | 184 | 0.0 | 1.6 | 0.00 | 0.00 | 0.00 | 31 | 1016.9 |
| 20260510013022 | 20 | 184 | 0.0 | 1.6 | 0.00 | 0.00 | 0.00 | 30 | 1016.9 |
| 20260510012522 | 20 | 184 | 0.0 | 3.2 | 0.00 | 0.00 | 0.00 | 30 | 1016.9 |
| 20260510012019 | 20 | 184 | 1.6 | 4.8 | 0.00 | 0.00 | 0.00 | 30 | 1016.9 |
| 20260510011519 | 20 | 184 | 1.6 | 4.8 | 0.00 | 0.00 | 0.00 | 28 | 1016.9 |
| 20260510010006 | 20 | 186 | 3.2 | 6.4 | 0.00 | 0.00 | 0.00 | 27 | 1016.8 |
| 20260510005505 | 20 | 223 | 1.6 | 6.4 | 0.00 | 0.00 | 0.00 | 25 | 1016.8 |
| 20260510004504 | 20 | 165 | 3.2 | 11.3 | 0.00 | 0.00 | 0.00 | 26 | 1016.8 |
| 20260510003505 | 20 | 192 | 3.2 | 12.9 | 0.00 | 0.00 | 0.00 | 26 | 1016.6 |
| 20260510003005 | 21 | 204 | 3.2 | 12.9 | 0.00 | 0.00 | 0.00 | 23 | 1016.7 |
| 20260510002503 | 21 | 200 | 3.2 | 9.7 | 0.00 | 0.00 | 0.00 | 27 | 1016.6 |
| 20260510001506 | 20 | 182 | 3.2 | 9.7 | 0.00 | 0.00 | 0.00 | 25 | 1016.7 |
| 20260510001004 | 21 | 171 | 3.2 | 6.4 | 0.00 | 0.00 | 0.00 | 26 | 1016.6 |
| 20260510000507 | 21 | 196 | 1.6 | 6.4 | 0.00 | 0.00 | 0.00 | 23 | 1016.6 |
| 20260510000005 | 21 | 184 | 1.6 | 9.7 | 0.00 | 0.00 | 0.00 | 23 | 1016.5 |
| 20260509235504 | 21 | 155 | 1.6 | 9.7 | 0.00 | 0.00 | 0.00 | 22 | 1016.6 |
| 20260509235004 | 21 | 254 | 1.6 | 8.0 | 0.00 | 0.00 | 0.00 | 22 | 1016.6 |
| 20260509234504 | 21 | 184 | 3.2 | 12.9 | 0.00 | 0.00 | 0.00 | 22 | 1016.7 |
| 20260509234004 | 21 | 203 | 3.2 | 12.9 | 0.00 | 0.00 | 0.00 | 24 | 1016.6 |
| 20260509233505 | 21 | 148 | 3.2 | 11.3 | 0.00 | 0.00 | 0.00 | 23 | 1016.7 |
| 20260509232504 | 21 | 249 | 3.2 | 9.7 | 0.00 | 0.00 | 0.00 | 21 | 1016.7 |
| 20260509232004 | 21 | 178 | 3.2 | 8.0 | 0.00 | 0.00 | 0.00 | 24 | 1016.7 |
| 20260509231505 | 21 | 155 | 3.2 | 16.1 | 0.00 | 0.00 | 0.00 | 23 | 1016.8 |
| 20260509231007 | 21 | 113 | 4.8 | 16.1 | 0.00 | 0.00 | 0.00 | 24 | 1016.8 |
| 20260509230506 | 21 | 186 | 3.2 | 12.9 | 0.00 | 0.00 | 0.00 | 22 | 1016.9 |
| 20260509230005 | 21 | 320 | 3.2 | 11.3 | 0.00 | 0.00 | 0.00 | 23 | 1017.1 |
| 20260509225510 | 21 | 155 | 3.2 | 8.0 | 0.00 | 0.00 | 0.00 | 23 | 1017.1 |
| 20260509225005 | 21 | 117 | 3.2 | 9.7 | 0.00 | 0.00 | 0.00 | 22 | 1017.2 |
| 20260509224504 | 22 | 182 | 3.2 | 11.3 | 0.00 | 0.00 | 0.00 | 21 | 1017.3 |
| 20260509224003 | 21 | 325 | 3.2 | 11.3 | 0.00 | 0.00 | 0.00 | 24 | 1017.2 |
| 20260509223503 | 21 | 329 | 3.2 | 11.3 | 0.00 | 0.00 | 0.00 | 23 | 1017.3 |
| 20260509223003 | 20 | 98 | 3.2 | 11.3 | 0.00 | 0.00 | 0.00 | 24 | 1017.2 |
| 20260509222503 | 20 | 134 | 3.2 | 11.3 | 0.00 | 0.00 | 0.00 | 25 | 1017.3 |
| 20260509222004 | 20 | 215 | 4.8 | 11.3 | 0.00 | 0.00 | 0.00 | 25 | 1017.3 |
| 20260509221502 | 20 | 225 | 3.2 | 11.3 | 0.00 | 0.00 | 0.00 | 25 | 1017.3 |
| 20260509221003 | 20 | 290 | 4.8 | 11.3 | 0.00 | 0.00 | 0.00 | 24 | 1017.4 |
| 20260509220503 | 20 | 151 | 4.8 | 11.3 | 0.00 | 0.00 | 0.00 | 23 | 1017.4 |
| 20260509220003 | 20 | 196 | 4.8 | 11.3 | 0.00 | 0.00 | 0.00 | 25 | 1017.4 |
| 20260509215505 | 20 | 168 | 4.8 | 17.7 | 0.00 | 0.00 | 0.00 | 24 | 1017.4 |
| 20260509214504 | 20 | 133 | 4.8 | 8.0 | 0.00 | 0.00 | 0.00 | 24 | 1017.4 |
| 20260509214003 | 20 | 213 | 4.8 | 8.0 | 0.00 | 0.00 | 0.00 | 25 | 1017.4 |
| 20260509213503 | 21 | 151 | 3.2 | 8.0 | 0.00 | 0.00 | 0.00 | 25 | 1017.5 |
| 20260509213004 | 20 | 126 | 3.2 | 12.9 | 0.00 | 0.00 | 0.00 | 26 | 1017.5 |
| 20260509212002 | 20 | 208 | 6.4 | 17.7 | 0.00 | 0.00 | 0.00 | 23 | 1017.5 |
| 20260509211502 | 20 | 122 | 4.8 | 16.1 | 0.00 | 0.00 | 0.00 | 25 | 1017.6 |
| 20260509211002 | 20 | 107 | 4.8 | 11.3 | 0.00 | 0.00 | 0.00 | 26 | 1017.6 |
| 20260509210503 | 19 | 135 | 4.8 | 11.3 | 0.00 | 0.00 | 0.00 | 25 | 1017.7 |
| 20260509210003 | 19 | 133 | 3.2 | 9.7 | 0.00 | 0.00 | 0.00 | 27 | 1017.7 |
| 20260509205503 | 19 | 116 | 3.2 | 9.7 | 0.00 | 0.00 | 0.00 | 27 | 1017.8 |
| 20260509205002 | 19 | 105 | 4.8 | 8.0 | 0.00 | 0.00 | 0.00 | 26 | 1017.8 |
| 20260509204458 | 20 | 167 | 4.8 | 12.9 | 0.00 | 0.00 | 0.00 | 26 | 1017.8 |
| 20260509203953 | 19 | 244 | 4.8 | 12.9 | 0.00 | 0.00 | 0.00 | 27 | 1017.8 |
| 20260509203445 | 20 | 183 | 3.2 | 11.3 | 0.00 | 0.00 | 0.00 | 27 | 1017.9 |
| 20260509202939 | 20 | 127 | 3.2 | 9.7 | 0.00 | 0.00 | 0.00 | 27 | 1017.9 |
| 20260509202434 | 20 | 109 | 3.2 | 11.3 | 0.00 | 0.00 | 0.00 | 28 | 1017.9 |
| 20260509201434 | 18 | 119 | 3.2 | 8.0 | 0.00 | 0.00 | 0.00 | 27 | 1017.8 |
| 20260509200934 | 18 | 109 | 3.2 | 8.0 | 0.00 | 0.00 | 0.00 | 30 | 1017.8 |
| 20260509200436 | 18 | 150 | 3.2 | 12.9 | 0.00 | 0.00 | 0.00 | 27 | 1017.8 |
| 20260509195935 | 19 | 146 | 4.8 | 12.9 | 0.00 | 0.00 | 0.00 | 25 | 1017.8 |
| 20260509195434 | 18 | 345 | 4.8 | 14.5 | 0.00 | 0.00 | 0.00 | 28 | 1017.8 |
| 20260509194936 | 19 | 134 | 3.2 | 14.5 | 0.00 | 0.00 | 0.00 | 27 | 1017.8 |
| 20260509194434 | 19 | 223 | 3.2 | 6.4 | 0.00 | 0.00 | 0.00 | 26 | 1017.9 |
| 20260509193431 | 18 | 94 | 3.2 | 8.0 | 0.00 | 0.00 | 0.00 | 30 | 1017.9 |
| 20260509192935 | 18 | 60 | 4.8 | 16.1 | 0.00 | 0.00 | 0.00 | 26 | 1017.7 |
| 20260509191933 | 18 | 153 | 3.2 | 8.0 | 0.00 | 0.00 | 0.00 | 29 | 1018.0 |
| 20260509191434 | 18 | 203 | 4.8 | 14.5 | 0.00 | 0.00 | 0.00 | 27 | 1018.1 |
| 20260509190431 | 18 | 136 | 6.4 | 14.5 | 0.00 | 0.00 | 0.00 | 27 | 1018.1 |
| 20260509185933 | 17 | 132 | 4.8 | 14.5 | 0.00 | 0.00 | 0.00 | 30 | 1018.1 |
| 20260509185431 | 17 | 119 | 4.8 | 14.5 | 0.00 | 0.00 | 0.00 | 30 | 1018.0 |
| 20260509184933 | 17 | 9 | 4.8 | 8.0 | 0.00 | 0.00 | 0.00 | 29 | 1018.0 |
| 20260509184431 | 16 | 128 | 6.4 | 11.3 | 0.00 | 0.00 | 0.00 | 30 | 1018.3 |
| 20260509183933 | 16 | 128 | 6.4 | 11.3 | 0.00 | 0.00 | 0.00 | 30 | 1018.1 |